This is the latest recevied weather packets stored in our database for station/object MB7UIK. If no packets are shown the sender has not sent any weather packets the latest 1 day(s).
| Time | Temp. | Humidity | Pressure | Rain* | Wind** | Luminosity | Snow |
|---|---|---|---|---|---|---|---|
| 1778044244 | 9.44° C | 100% | 1011.1 hPa | 0 mm | 1.34 m/s, 25° | - | - |
| 1778044185 | 9.44° C | 100% | 1011.1 hPa | 0 mm | 1.34 m/s, 355° | - | - |
| 1778044125 | 9.44° C | 100% | 1011.1 hPa | 0 mm | 0.45 m/s, 304° | - | - |
| 1778044065 | 9.44° C | 100% | 1011.1 hPa | 0 mm | 0.89 m/s, 316° | - | - |
| 1778044033 | 9.44° C | 100% | 1011.1 hPa | 0 mm | 0.89 m/s, 316° | - | - |
| 1778044005 | 9.44° C | 100% | 1011.1 hPa | 0 mm | 1.34 m/s, 320° | - | - |
| 1778043945 | 9.44° C | 100% | 1011.1 hPa | 0 mm | 0.89 m/s, 323° | - | - |
| 1778043885 | 9.44° C | 100% | 1011.1 hPa | 0 mm | 0.89 m/s, 360° | - | - |
| 1778043825 | 9.44° C | 100% | 1011.1 hPa | 0 mm | 0.89 m/s, 19° | - | - |
| 1778043765 | 9.44° C | 100% | 1011 hPa | 0 mm | 0 m/s | - | - |
| 1778043733 | 9.44° C | 100% | 1011 hPa | 0 mm | 0 m/s | - | - |
| 1778043704 | 9.44° C | 100% | 1011 hPa | 0 mm | 0.45 m/s, 275° | - | - |
| 1778043644 | 9.44° C | 100% | 1011 hPa | 0 mm | 0.45 m/s, 263° | - | - |
| 1778043584 | 9.44° C | 100% | 1011 hPa | 0 mm | 0.45 m/s, 298° | - | - |
| 1778043524 | 10° C | 100% | 1011 hPa | 0 mm | 0.45 m/s, 263° | - | - |
| 1778043465 | 10° C | 100% | 1011 hPa | 0 mm | 0.89 m/s, 262° | - | - |
| 1778043433 | 10° C | 100% | 1011 hPa | 0 mm | 0.89 m/s, 262° | - | - |
| 1778043405 | 10° C | 100% | 1011 hPa | 0 mm | 0.45 m/s, 278° | - | - |
| 1778043345 | 10° C | 100% | 1011 hPa | 0 mm | 1.34 m/s, 284° | - | - |
| 1778043285 | 10° C | 100% | 1011 hPa | 0 mm | 0.45 m/s, 303° | - | - |
| 1778043225 | 10° C | 100% | 1011 hPa | 0 mm | 0 m/s | - | - |
| 1778043165 | 10° C | 100% | 1011 hPa | 0 mm | 0.45 m/s, 327° | - | - |
| 1778043131 | 10° C | 100% | 1011 hPa | 0 mm | 0.45 m/s, 327° | - | - |
| 1778043105 | 10° C | 100% | 1010.9 hPa | 0 mm | 0 m/s | - | - |
| 1778043045 | 10° C | 100% | 1010.9 hPa | 0 mm | 0.89 m/s, 341° | - | - |
* Rain latest hour (hover to see other rain measurements)
** Current wind speed in m/s (hover to see current wind gust speed)